Henderson, NV

9:50 PM PST on February 19, 2017 (GMT -0800)
Henderson

Weather History for KHND - December, 2012

Change the Weather History Date:

Thursday, December 20, 2012

  Actual Average (KLAS) Record (KLAS)
Temperature  
Mean Temperature 35 °F -  
Max Temperature 45 °F 54 °F 73 °F (1981)
Min Temperature 25 °F 33 °F 14 °F (1945)
Degree Days  
Heating Degree Days 30    
Moisture  
Dew Point 15 °F    
Average Humidity 49    
Maximum Humidity 69    
Minimum Humidity 23    
Precipitation  
Precipitation 0.00 in - - ()
Sea Level Pressure  
Sea Level Pressure 30.40 in    
Wind  
Wind Speed 6 mph (SSE)    
Max Wind Speed 9 mph    
Max Gust Speed -    
Visibility 10 miles    
Events      
Averages and records for this station are not official NWS values.
T = Trace of Precipitation, MM = Missing Value Source: NWS Daily Summary

Daily Weather History Graph

Daily Weather History Graph

Search for Another Location

Airport or City:

Trip Planner

Search our weather history database for the weather conditions in past years. The results will help you decide how hot, cold, wet, or windy it might be!

Date:

Astronomy

Dec. 20, 2012 Rise Set
Actual Time 6:47 AM PST 4:29 PM PST
Civil Twilight 6:18 AM PST 4:58 PM PST
Nautical Twilight 5:46 AM PST 5:30 PM PST
Astronomical Twilight 5:15 AM PST 6:01 PM PST
Moon 11:41 AM PST No Moon Set
Length of Visible Light 10h 40m
Length of Day
9h 42m
First Quarter, 56% of the Moon is Illuminated
Dec 20
First Quarter
Dec 28
Full
Jan 4
Last Quarter
Jan 11
New
Jan 18
First Quarter

Hourly Weather History & Observations

Time (PST) Temp. Windchill Dew Point Humidity Pressure Visibility Wind Dir Wind Speed Gust Speed Precip Events Conditions
12:56 AM 27.1 °F 20.7 °F 18.1 °F 69% 30.49 in 10.0 mi SSE 5.8 mph - N/A   Clear
1:56 AM 27.1 °F 19.7 °F 17.1 °F 66% 30.48 in 10.0 mi SSE 6.9 mph - N/A   Clear
2:56 AM 27.1 °F 19.7 °F 15.1 °F 60% 30.47 in 10.0 mi SSE 6.9 mph - N/A   Clear
3:56 AM 26.1 °F 21.9 °F 16.2 °F 66% 30.46 in 10.0 mi SE 3.5 mph - N/A   Clear
4:56 AM 25.2 °F 18.3 °F 16.2 °F 69% 30.47 in 10.0 mi SSE 5.8 mph - N/A   Clear
5:56 AM 26.1 °F 17.6 °F 15.1 °F 63% 30.48 in 10.0 mi SSE 8.1 mph - N/A   Clear
6:56 AM 25.2 °F 17.3 °F 15.1 °F 66% 30.48 in 10.0 mi SSE 6.9 mph - N/A   Clear
7:56 AM 29.1 °F 22.1 °F 16.2 °F 58% 30.48 in 10.0 mi SSE 6.9 mph - N/A   Clear
8:56 AM 34.0 °F 29.8 °F 13.1 °F 42% 30.48 in 10.0 mi South 4.6 mph - N/A   Clear
9:56 AM 36.9 °F 34.3 °F 9.1 °F 32% 30.47 in 10.0 mi Variable 3.5 mph - N/A   Clear
10:56 AM 39.9 °F 36.7 °F 8.1 °F 27% 30.45 in 10.0 mi Variable 4.6 mph - N/A   Clear
11:56 AM 43.0 °F 38.2 °F 8.1 °F 24% 30.42 in 10.0 mi NNE 8.1 mph - N/A   Clear
12:56 PM 43.9 °F 42.3 °F 9.1 °F 24% 30.39 in 10.0 mi Variable 3.5 mph - N/A   Clear
1:56 PM 45.0 °F 40.6 °F 10.0 °F 24% 30.37 in 10.0 mi NNE 8.1 mph - N/A   Clear
2:56 PM 45.9 °F 43.6 °F 10.0 °F 23% 30.35 in 10.0 mi Variable 4.6 mph - N/A   Clear
3:56 PM 44.6 °F 41.4 °F 10.4 °F 25% 30.29 in 10.0 mi NNE 5.8 mph - N/A   Clear
4:56 PM 41.0 °F - 13.1 °F 32% 30.34 in 10.0 mi Calm Calm - N/A   Clear
5:56 PM 36.0 °F 33.3 °F 19.0 °F 50% 30.34 in 10.0 mi SSE 3.5 mph - N/A   Clear
6:56 PM 33.8 °F 27.7 °F 21.2 °F 60% 30.28 in 10.0 mi SSE 6.9 mph - N/A   Clear
7:56 PM 32.0 °F 25.6 °F 19.0 °F 59% 30.34 in 10.0 mi SSE 6.9 mph - N/A   Clear
8:56 PM 31.1 °F 23.1 °F 19.0 °F 61% 30.34 in 10.0 mi SSE 9.2 mph - N/A   Clear
9:56 PM 31.1 °F 23.1 °F 17.1 °F 56% 30.34 in 10.0 mi SSE 9.2 mph - N/A   Clear
10:56 PM 31.1 °F 23.1 °F 16.2 °F 54% 30.32 in 10.0 mi SSE 9.2 mph - N/A   Clear
11:56 PM 30.0 °F 21.7 °F 17.1 °F 59% 30.31 in 10.0 mi SSE 9.2 mph - N/A   Clear